Orbital Elements at Epoch 2459200.5 (2020-Dec-17.0) TDB
Reference: JPL 24 (heliocentric ecliptic J2000)
Element | Value | Uncertainty (1-sigma) | Units |
e | .09817129382800731 | 3.2522e-08 | |
a | 2.238928477635857 | 9.9322e-09 | au |
q | 2.019129972197975 | 7.1131e-08 | au |
i | 5.153673952759189 | 3.6315e-06 | deg |
node | 115.4560325105734 | 4.6001e-05 | deg |
peri | 337.0823076577762 | 5.12e-05 | deg |
M | 137.8975130092206 | 2.2174e-05 | deg |
tp | 2458731.780857720288 (2019-Sep-05.28085772) | 7.5243e-05 | TDB |
period | 1223.654346901916 3.35 | 8.1424e-06 2.229e-08 | d yr |
n | .2942007282624039 | 1.9577e-09 | deg/d |
Q | 2.45872698307374 | 1.0907e-08 | au |
|
| | Orbit Determination Parameters
Additional Information
|